AirNav  
 
 1296 users online  

05LA Greg's Flying Service Airport
Baskin, Louisiana, USA

GOING TO BASKIN?


FAA INFORMATION EFFECTIVE 07 DECEMBER 2017

Location

FAA Identifier: 05LA
Lat/Long: 32-15-55.5150N / 091-41-52.5150W
32-15.925250N / 091-41.875250W
32.2654208 / -91.6979208
(estimated)
Elevation: 77 ft. / 23 m (estimated)
Variation: 03E (1990)
From city: 2 miles E of BASKIN, LA
Time zone: UTC -6 (UTC -5 during Daylight Saving Time)
Zip code: 71295

Airport Operations

Airport use: Private use. Permission required prior to landing
Activation date: 11/1992
Control tower: no
ARTCC: FORT WORTH CENTER
FSS: DE RIDDER FLIGHT SERVICE STATION
Attendance: UNATNDD
Segmented circle: no

Nearby radio navigation aids

VOR radial/distance  VOR name  Freq  Var
MLUr128/22.8MONROE VORTAC117.2003E

 
NDB name  Hdg/Dist  Freq  Var  ID
BASTROP159/30.832903EBQP -... --.- .--.
TALLULAH270/34.134402ETKH - -.- ....

Airport Services

Runway Information

Runway 18/36

Dimensions: 2200 x 70 ft. / 671 x 21 m
Surface: turf
RUNWAY 18  RUNWAY 36
Latitude: 32-16.106667N32-15.743833N
Longitude: 091-41.876667W091-41.873833W
Elevation: 77.0 ft.75.0 ft.
Traffic pattern: leftright
Runway heading: 177 magnetic, 180 true357 magnetic, 360 true
Obstructions: 60 ft. trees, 100 ft. from runway60 ft. trees, 100 ft. from runway

Airport Ownership and Management from official FAA records

Ownership: Privately-owned
Owner: GREGORY W. TAYLOR
540 BLOUNT ROAD
WINNSBORO, LA 71295
Phone (318) 439-8017

Additional Remarks

100 FT TREES NORTH END OF RWY.

Instrument Procedures

There are no published instrument procedures at 05LA.

Some nearby airports with instrument procedures:

M79 - John H Hooks Jr Memorial Airport (14 nm N)
KMLU - Monroe Regional Airport (23 nm NW)
KBQP - Morehouse Memorial Airport (31 nm N)
KTVR - Vicksburg Tallulah Regional Airport (34 nm E)
KVKS - Vicksburg Municipal Airport (39 nm E)
 
Loc | Ops | Rwys | IFR | FBO | Links
Com | Nav | Svcs | Stats | Notes


 
Area around 05LA (Greg's Flying Service Airport)
 
Road maps at: MapQuest Bing Google
 
Aerial photo
No photo
 
Sectional chart

 
Airport distance calculator
Flying to Greg's Flying Service Airport? Find the distance to fly.

From to 05LA

Sunrise and sunset
Times for 12-Dec-2017
 Local
(UTC-6)
 Zulu
(UTC)
Morning civil twilight06:3312:33
Sunrise07:0013:00
Sunset17:0223:02
Evening civil twilight17:2923:29

Current date and time
Zulu (UTC)  12-Dec-2017 22:21:36
Local (UTC-6)  12-Dec-2017 16:21:36
 
METAR
KMLU 
23nm NW 
122153Z 34009KT 10SM CLR 14/M05 A3019 RMK AO2 SLP224 T01391050
KBQP 
31nm N 
122155Z AUTO 33007KT 10SM CLR 14/M08 A3020 RMK AO2 T01351082
KTVR 
34nm E 
122153Z AUTO 32005KT 10SM CLR 13/M02 A3018 RMK AO2 SLP227 T01281022
KVKS 
39nm E 
122155Z AUTO 35009KT 10SM CLR 13/M02 A3019 RMK A01
KHEZ 
44nm SE 
122156Z AUTO 33007G15KT 10SM CLR 13/M01 A3018 RMK AO2 SLP223 T01331006
TAF
KMLU 
23nm NW 
121720Z 1218/1318 34010KT P6SM SKC FM130000 VRB03KT P6SM SKC FM131500 21010KT P6SM SKC
NOTAMs
Click for the latest NOTAMs
NOTAMs are issued by the DoD/FAA and will open in a separate window not controlled by AirNav.

 

 
 

Would you like to see your business listed on this page?

 If your business provides an interesting product or service to pilots, flight crews, aircraft, or users of the Greg's Flying Service Airport, you should consider listing it here.  To start the listing process, click on the button below
 
Add a business
 

Other Pages about Greg's Flying Service Airport

Update a link
 
Copyright © AirNav, LLC. All rights reserved. Privacy Policy  Contact